[Iaude] MPEC Y101: 2023 YM1 [a=2.35,e=0.46,i=6.5,H=23.2]

mpec at marsden.cfa.harvard.edu mpec at marsden.cfa.harvard.edu
Fri Dec 29 13:19:33 EST 2023


M.P.E.C. 2023-Y101                            Issued 2023 December 29, 18:17 UT

     The Minor Planet Electronic Circulars contain information on unusual
         minor planets, routine data on comets and natural satellites,
         and occasional editorial announcements.  They are published
    on behalf of Division F of the International Astronomical Union by the
          Minor Planet Center, Smithsonian Astrophysical Observatory,
                          Cambridge, MA 02138, U.S.A.
			  
             Prepared using the Tamkin Foundation Computer Network

                              MPC at CFA.HARVARD.EDU
            URL https://www.minorplanetcenter.net/    ISSN 1523-6714

                                    2023 YM1                                    


Observations:
     K23Y01M  C2023 12 04.63106607 20 58.155+27 09 45.03         22.84GVEY101F52
     K23Y01M  C2023 12 04.63687607 20 58.720+27 09 51.39         22.52GVEY101F52
     K23Y01M  C2023 12 04.64268007 20 59.319+27 09 58.08         21.73GVEY101F52
     K23Y01M  C2023 12 04.64847807 20 59.918+27 10 04.45         22.53GVEY101F52
     K23Y01M  C2023 12 07.58860507 26 21.852+28 05 49.53         22.79GVEY101F52
     K23Y01M  C2023 12 07.58924807 26 21.907+28 05 50.16         22.02GVEY101F52
     K23Y01M  C2023 12 12.44179507 34 20.820+29 39 20.63         21.85GVEY101F52
     K23Y01M  C2023 12 12.45346307 34 21.788+29 39 34.86         22.31GVEY101F52
     K23Y01M  C2023 12 12.46516607 34 22.720+29 39 48.86         21.87GVEY101F52
     K23Y01M  C2023 12 12.47688507 34 23.659+29 40 02.55               VEY101F52
     K23Y01M  C2023 12 16.42565207 39 59.877+30 56 13.33         22.46GVEY101F52
     K23Y01M  C2023 12 16.43744607 40 00.685+30 56 27.37         21.60GVEY101F52
     K23Y01M  C2023 12 16.46088907 40 02.264+30 56 54.89         22.59GVEY101F52
     K23Y01M  C2023 12 16.56512607 40 09.200+30 58 55.23         22.05GVEY101F52
     K23Y01M* C2023 12 25.49467707 49 47.505+33 43 15.23         21.41iXEY101F51
     K23Y01M  C2023 12 25.50327207 49 47.832+33 43 23.96         21.75iXEY101F51
     K23Y01M  C2023 12 25.51189607 49 48.160+33 43 33.06         21.27iXEY101F51
     K23Y01M DC2023 12 26.22262 07 50 25.29 +33 55 35.3          22.2 GVEY101695
     K23Y01M DC2023 12 26.26069 07 50 26.89 +33 56 16.4          22.2 GVEY101695

Observer details:
695 Kitt Peak.  Observer R. A. Mastaler.  2.3-m f/9 reflector + CCD.
F51 Pan-STARRS 1, Haleakala.  Observers J. Herman, T. Lowe, P. Minguez, A.
    Schultz, I. Smith.  Measurers K. Chambers, T. de Boer, J. Fairlamb, H.
    Gao, M. Huber, C.-C. Lin, E. Magnier, Y. Ramanjooloo, R. Wainscoat, R.
    Weryk.  1.8-m Ritchey-Chretien + CCD.
F52 Pan-STARRS 2, Haleakala.  Observers J. Herman, T. Lowe, P. Minguez, A.
    Schultz, I. Smith.  Measurers K. Chambers, T. de Boer, J. Fairlamb, H.
    Gao, M. Huber, C.-C. Lin, E. Magnier, Y. Ramanjooloo, R. Wainscoat, R.
    Weryk.  1.8-m Ritchey-Chretien + CCD.

Orbital elements:
2023 YM1                                                 Earth MOID = 0.2927 AU
Epoch 2023 Sept. 13.0 TT = JDT 2460200.5                Veres                   
M 336.60567              (2000.0)            P               Q                  
n   0.27293089     Peri.   14.44336     +0.11402667     -0.98790244             
a   2.3537893      Node    69.09447     +0.89997164     +0.05790776             
e   0.4576490      Incl.    6.46001     +0.42077187     +0.14385914             
P   3.61           H   23.21          G   0.15           U   6                  
Residuals in seconds of arc
231204 F52  0.4+  0.4-    231212 F52  0.1+  0.2+    231225 F51  0.0   0.2+
231204 F52  0.1-  0.3-    231212 F52  0.0   0.2+    231225 F51  0.0   0.0
231204 F52  0.2-  0.1+    231212 F52  0.1+  0.0     231225 F51  0.0   0.2+
231204 F52  0.2-  0.2+    231216 F52  0.0   0.0     231226 695  0.3-  0.0
231207 F52  0.1+  0.3+    231216 F52  0.1+  0.1-    231226 695  0.2+  0.1-
231207 F52  0.0   0.2+    231216 F52  0.0   0.3-
231212 F52  0.3-  0.1-    231216 F52  0.0   0.1-

Ephemeris:
2023 YM1                 a,e,i = 2.35, 0.46, 6                   q = 1.2766
Date    TT    R. A. (2000) Decl.     Delta      r    Elong.  Phase     V
2023 11 29    07 09 43.8 +25 26 40   0.3546  1.2797   140.3    29.5    22.8
...
2023 12 14    07 36 38.2 +30 09 26   0.3287  1.2782   149.3    23.1    22.4
...
2023 12 22    07 46 30.5 +32 40 53   0.3255  1.2850   154.4    19.3    22.3
...
2023 12 28    07 51 46.0 +34 25 26   0.3281  1.2935   158.0    16.6    22.2
2023 12 29    07 52 28.3 +34 41 41   0.3290  1.2952   158.5    16.1    22.2
2023 12 30    07 53 07.7 +34 57 32   0.3300  1.2969   159.1    15.7    22.2
...
2024 01 05    07 56 08.9 +36 23 10   0.3386  1.3091   161.7    13.6    22.2
...
2024 01 13    07 58 14.6 +37 47 15   0.3572  1.3293   163.1    12.4    22.3
...
2024 01 28    08 00 26.1 +38 40 47   0.4149  1.3785   158.2    15.4    22.8

M. P. C. Staff               (C) Copyright 2023 MPC           M.P.E.C. 2023-Y101




More information about the Iaude mailing list